Location: Wanzleben
(52.0609°N, 11.4408°E)
Time: 01:22:25
(UTC+00:00)

Cosmos 1125 Rocket - Pass Details

Date: 18 September 2020
Orbit: 757 x 780 km, 74.0° (Epoch: 23 October)

Event Time Altitude Azimuth Distance (km) Brightness Sun altitude
Rises 18:58:19 0° 176° (S) 3,246 6.5 -15.3°
Reaches altitude 10° 19:00:51 10° 168° (SSE) 2,325 5.7 -15.7°
Maximum altitude 19:05:37 36° 103° (ESE) 1,229 4.0 -16.3°
Drops below altitude 10° 19:10:26 10° 39° (NE) 2,344 5.9 -17.0°
Sets 19:12:59 0° 31° (NNE) 3,277 6.7 -17.4°
